Powrót do katalogu

Ten-Koh2

TEN-KOH 2

AktywnyKrótkofalarstwoVLEO
NORAD 68261·PAYLOAD·🇯🇵 Japan

Wystrzelony Oct 26, 2025 z Tanegashima Space Center

Loading…

Następne Przeloty (najbliższe 24 godziny)

TLE

ŚwieżeSource: AMSAT

Epoka: Sep 14, 2026, 01:03 UTC

1 68261U 25241B   26257.04423650  .00004861  00000-0  20622-3 0  9997
2 68261  51.6603 256.4037 0008199  78.6237 281.5662 15.24862942 28466

Śledź Ten-Koh2 w czasie rzeczywistym z AllMySat

Download on the App Store